| time (UTC) | temp F | wind direction | speed MPH | gust MPH | rain 1hr in | rain 24hr in | rain mn in | humidity % | barometer mb |
| 20260505095903 | 62 | 330 | 1.0 | 2.0 | 0.00 | 0.00 | 0.00 | 85 | 998.7 |
| 20260505095400 | 62 | 167 | 1.0 | 1.0 | 0.00 | 0.00 | 0.00 | 87 | 998.2 |
| 20260505094856 | 62 | 126 | 2.0 | 2.0 | 0.00 | 0.00 | 0.00 | 87 | 998.1 |
| 20260505094354 | 62 | 257 | 2.0 | 2.0 | 0.00 | 0.00 | 0.00 | 86 | 998.0 |
| 20260505093849 | 63 | 1 | 5.0 | 6.0 | 0.00 | 0.00 | 0.00 | 84 | 996.9 |
| 20260505093347 | 63 | 55 | 2.0 | 2.0 | 0.00 | 0.00 | 0.00 | 83 | 997.6 |
| 20260505092844 | 63 | 341 | 2.0 | 2.0 | 0.00 | 0.00 | 0.00 | 82 | 998.4 |
| 20260505092342 | 63 | 129 | 1.0 | 2.0 | 0.00 | 0.00 | 0.00 | 83 | 998.6 |
| 20260505091839 | 63 | 352 | 2.0 | 3.0 | 0.00 | 0.00 | 0.00 | 82 | 998.9 |
| 20260505091337 | 62 | 250 | 4.0 | 5.0 | 0.00 | 0.00 | 0.00 | 83 | 999.0 |
| 20260505090835 | 62 | 126 | 1.0 | 1.0 | 0.00 | 0.00 | 0.00 | 84 | 999.2 |
| 20260505090333 | 61 | 119 | 1.0 | 1.0 | 0.00 | 0.00 | 0.00 | 85 | 999.2 |
| 20260505085829 | 61 | 147 | 0.0 | 0.0 | 0.00 | 0.00 | 0.00 | 87 | 999.4 |
| 20260505085328 | 61 | 121 | 1.0 | 1.0 | 0.00 | 0.00 | 0.00 | 88 | 999.5 |
| 20260505084825 | 61 | 126 | 1.0 | 1.0 | 0.00 | 0.00 | 0.00 | 88 | 999.7 |
| 20260505084323 | 60 | 132 | 0.0 | 0.0 | 0.00 | 0.00 | 0.00 | 88 | 999.6 |
| 20260505083820 | 60 | 138 | 1.0 | 1.0 | 0.00 | 0.00 | 0.00 | 89 | 999.4 |
| 20260505083318 | 60 | 150 | 0.0 | 1.0 | 0.00 | 0.00 | 0.00 | 88 | 999.4 |
| 20260505082814 | 60 | 129 | 0.0 | 0.0 | 0.00 | 0.00 | 0.00 | 88 | 999.5 |
| 20260505082311 | 61 | 133 | 0.0 | 0.0 | 0.00 | 0.00 | 0.00 | 88 | 999.5 |
| 20260505081807 | 61 | 132 | 0.0 | 0.0 | 0.00 | 0.00 | 0.00 | 87 | 999.4 |
| 20260505081304 | 61 | 128 | 0.0 | 0.0 | 0.00 | 0.00 | 0.00 | 86 | 999.2 |
| 20260505080800 | 61 | 132 | 0.0 | 0.0 | 0.00 | 0.00 | 0.00 | 86 | 999.2 |
| 20260505080256 | 61 | 135 | 0.0 | 1.0 | 0.00 | 0.00 | 0.00 | 85 | 999.3 |
| 20260505075752 | 61 | 151 | 1.0 | 1.0 | 0.00 | 0.00 | 0.00 | 85 | 999.3 |
| 20260505075250 | 62 | 132 | 0.0 | 0.0 | 0.00 | 0.00 | 0.00 | 84 | 999.4 |
| 20260505074747 | 62 | 134 | 0.0 | 0.0 | 0.00 | 0.00 | 0.00 | 83 | 999.4 |
| 20260505074244 | 62 | 127 | 0.0 | 0.0 | 0.00 | 0.00 | 0.00 | 82 | 999.4 |
| 20260505073741 | 63 | 128 | 0.0 | 0.0 | 0.00 | 0.00 | 0.00 | 81 | 999.7 |
| 20260505073239 | 63 | 121 | 0.0 | 0.0 | 0.00 | 0.00 | 0.00 | 80 | 999.4 |
| 20260505072735 | 63 | 120 | 0.0 | 0.0 | 0.00 | 0.00 | 0.00 | 80 | 999.8 |
| 20260505072231 | 63 | 119 | 0.0 | 0.0 | 0.00 | 0.00 | 0.00 | 79 | 999.5 |
| 20260505071727 | 64 | 88 | 2.0 | 2.0 | 0.00 | 0.00 | 0.00 | 79 | 1000.0 |
| 20260505071224 | 64 | 24 | 2.0 | 2.0 | 0.00 | 0.00 | 0.00 | 78 | 999.7 |
| 20260505070716 | 64 | 122 | 0.0 | 0.0 | 0.00 | 0.00 | 0.00 | 78 | 999.7 |
| 20260505070212 | 64 | 122 | 0.0 | 1.0 | 0.00 | 0.00 | 0.00 | 77 | 999.6 |
| 20260505065708 | 64 | 140 | 0.0 | 0.0 | 0.00 | 0.00 | 0.00 | 77 | 999.7 |
| 20260505065205 | 64 | 137 | 0.0 | 1.0 | 0.00 | 0.00 | 0.00 | 76 | 999.9 |
| 20260505064702 | 64 | 326 | 2.0 | 2.0 | 0.00 | 0.00 | 0.00 | 77 | 999.8 |
| 20260505064200 | 64 | 125 | 2.0 | 2.0 | 0.00 | 0.00 | 0.00 | 77 | 999.6 |
| 20260505063657 | 64 | 130 | 1.0 | 1.0 | 0.00 | 0.00 | 0.00 | 77 | 999.4 |
| 20260505063153 | 64 | 47 | 1.0 | 3.0 | 0.00 | 0.00 | 0.00 | 77 | 999.3 |
| 20260505062649 | 64 | 146 | 1.0 | 1.0 | 0.00 | 0.00 | 0.00 | 76 | 999.3 |
| 20260505062147 | 64 | 122 | 0.0 | 0.0 | 0.00 | 0.00 | 0.00 | 76 | 999.4 |
| 20260505061644 | 64 | 319 | 4.0 | 5.0 | 0.00 | 0.00 | 0.00 | 76 | 999.3 |
| 20260505061142 | 64 | 117 | 1.0 | 1.0 | 0.00 | 0.00 | 0.00 | 76 | 999.2 |
| 20260505060640 | 64 | 215 | 1.0 | 1.0 | 0.00 | 0.00 | 0.00 | 76 | 999.5 |
| 20260505060136 | 64 | 318 | 4.0 | 5.0 | 0.00 | 0.00 | 0.00 | 76 | 999.5 |
| 20260505055631 | 64 | 120 | 1.0 | 2.0 | 0.00 | 0.00 | 0.00 | 76 | 999.4 |
| 20260505055128 | 64 | 164 | 2.0 | 2.0 | 0.00 | 0.00 | 0.00 | 76 | 999.4 |
| 20260505054625 | 64 | 297 | 5.0 | 6.0 | 0.00 | 0.00 | 0.00 | 76 | 999.4 |
| 20260505054123 | 64 | 230 | 3.0 | 3.0 | 0.00 | 0.00 | 0.00 | 76 | 999.8 |
| 20260505053620 | 64 | 196 | 4.0 | 6.0 | 0.00 | 0.00 | 0.00 | 76 | 999.8 |
| 20260505053116 | 64 | 42 | 4.0 | 5.0 | 0.00 | 0.00 | 0.00 | 76 | 999.5 |
| 20260505052613 | 64 | 239 | 3.0 | 3.0 | 0.00 | 0.00 | 0.00 | 76 | 999.3 |
| 20260505052111 | 64 | 307 | 3.0 | 5.0 | 0.00 | 0.00 | 0.00 | 76 | 999.3 |
| 20260505051608 | 64 | 177 | 2.0 | 2.0 | 0.00 | 0.00 | 0.00 | 75 | 999.5 |
| 20260505051106 | 64 | 308 | 3.0 | 3.0 | 0.00 | 0.00 | 0.00 | 76 | 999.6 |
| 20260505050604 | 64 | 71 | 3.0 | 3.0 | 0.00 | 0.00 | 0.00 | 75 | 1000.0 |
| 20260505041531 | 66 | 280 | 1.0 | 1.0 | 0.00 | 0.00 | 0.00 | 74 | 1000.3 |
| 20260505041029 | 66 | 39 | 1.0 | 2.0 | 0.00 | 0.00 | 0.00 | 73 | 1000.0 |
| 20260505040526 | 66 | 135 | 1.0 | 2.0 | 0.00 | 0.00 | 0.00 | 73 | 1000.3 |
| 20260505040023 | 66 | 125 | 1.0 | 1.0 | 0.00 | 0.00 | 0.00 | 73 | 1000.6 |
| 20260505035519 | 66 | 298 | 3.0 | 3.0 | 0.00 | 0.00 | 0.00 | 73 | 1000.7 |
| 20260505035016 | 66 | 327 | 3.0 | 3.0 | 0.00 | 0.00 | 0.00 | 72 | 1000.7 |
| 20260505034512 | 66 | 117 | 2.0 | 3.0 | 0.00 | 0.00 | 0.00 | 73 | 1000.7 |
| 20260505034010 | 66 | 6 | 2.0 | 5.0 | 0.00 | 0.00 | 0.00 | 72 | 1000.7 |
| 20260505033506 | 66 | 89 | 1.0 | 1.0 | 0.00 | 0.00 | 0.00 | 72 | 1001.0 |
| 20260505033005 | 66 | 121 | 2.0 | 2.0 | 0.00 | 0.00 | 0.00 | 72 | 1000.9 |
| 20260505032502 | 66 | 290 | 1.0 | 2.0 | 0.00 | 0.00 | 0.00 | 71 | 1001.1 |
| 20260505031958 | 67 | 23 | 2.0 | 2.0 | 0.00 | 0.00 | 0.00 | 71 | 1000.9 |
| 20260505031455 | 67 | 156 | 1.0 | 1.0 | 0.00 | 0.00 | 0.00 | 72 | 1000.9 |
| 20260505030953 | 67 | 88 | 1.0 | 1.0 | 0.00 | 0.00 | 0.00 | 71 | 1000.9 |
| 20260505030449 | 67 | 133 | 1.0 | 1.0 | 0.00 | 0.00 | 0.00 | 70 | 1000.6 |
| 20260505025944 | 67 | 49 | 1.0 | 2.0 | 0.00 | 0.00 | 0.00 | 70 | 1000.6 |
| 20260505025441 | 68 | 37 | 3.0 | 5.0 | 0.00 | 0.00 | 0.00 | 70 | 1000.5 |
| 20260505024939 | 68 | 346 | 2.0 | 2.0 | 0.00 | 0.00 | 0.00 | 69 | 1000.4 |
| 20260505024436 | 68 | 102 | 1.0 | 2.0 | 0.00 | 0.00 | 0.00 | 68 | 1000.3 |
| 20260505023933 | 68 | 197 | 2.0 | 3.0 | 0.00 | 0.00 | 0.00 | 68 | 1000.5 |
| 20260505023430 | 68 | 96 | 0.0 | 0.0 | 0.00 | 0.00 | 0.00 | 68 | 1000.4 |
| 20260505022928 | 68 | 124 | 0.0 | 1.0 | 0.00 | 0.00 | 0.00 | 68 | 1000.5 |
| 20260505022426 | 68 | 128 | 1.0 | 1.0 | 0.00 | 0.00 | 0.00 | 67 | 1000.2 |
| 20260505021922 | 68 | 0 | 1.0 | 2.0 | 0.00 | 0.00 | 0.00 | 67 | 1000.2 |
| 20260505021418 | 69 | 150 | 2.0 | 2.0 | 0.00 | 0.00 | 0.00 | 66 | 999.9 |
| 20260505020914 | 69 | 123 | 1.0 | 1.0 | 0.00 | 0.00 | 0.00 | 65 | 999.8 |
| 20260505020410 | 69 | 89 | 2.0 | 2.0 | 0.00 | 0.00 | 0.00 | 65 | 999.8 |
| 20260505015907 | 69 | 91 | 1.0 | 2.0 | 0.00 | 0.00 | 0.00 | 64 | 999.7 |
| 20260505015404 | 70 | 124 | 0.0 | 0.0 | 0.00 | 0.00 | 0.00 | 63 | 999.8 |
| 20260505014901 | 70 | 89 | 1.0 | 1.0 | 0.00 | 0.00 | 0.00 | 63 | 999.5 |
| 20260505014358 | 70 | 146 | 2.0 | 3.0 | 0.00 | 0.00 | 0.00 | 63 | 999.4 |
| 20260505013855 | 70 | 24 | 3.0 | 3.0 | 0.00 | 0.00 | 0.00 | 63 | 999.4 |
| 20260505013352 | 70 | 122 | 1.0 | 1.0 | 0.00 | 0.00 | 0.00 | 62 | 999.5 |
| 20260505012850 | 70 | 111 | 0.0 | 0.0 | 0.00 | 0.00 | 0.00 | 62 | 999.5 |
| 20260505012348 | 71 | 115 | 1.0 | 1.0 | 0.00 | 0.00 | 0.00 | 61 | 999.4 |
| 20260505011844 | 71 | 262 | 2.0 | 3.0 | 0.00 | 0.00 | 0.00 | 60 | 999.3 |
| 20260505011341 | 71 | 82 | 1.0 | 2.0 | 0.00 | 0.00 | 0.00 | 60 | 999.3 |
| 20260505010837 | 71 | 107 | 1.0 | 1.0 | 0.00 | 0.00 | 0.00 | 60 | 999.1 |
| 20260505010333 | 72 | 110 | 1.0 | 2.0 | 0.00 | 0.00 | 0.00 | 60 | 999.1 |
| 20260505005829 | 72 | 149 | 1.0 | 1.0 | 0.00 | 0.00 | 0.00 | 60 | 999.2 |
| 20260505005326 | 72 | 1 | 4.0 | 5.0 | 0.00 | 0.00 | 0.00 | 60 | 998.9 |
| 20260505004824 | 72 | 117 | 1.0 | 2.0 | 0.00 | 0.00 | 0.00 | 60 | 998.7 |
| 20260505004320 | 73 | 129 | 1.0 | 2.0 | 0.00 | 0.00 | 0.00 | 58 | 998.8 |
| 20260505003817 | 73 | 127 | 1.0 | 1.0 | 0.00 | 0.00 | 0.00 | 58 | 998.9 |
| 20260505003314 | 73 | 127 | 1.0 | 1.0 | 0.00 | 0.00 | 0.00 | 56 | 998.9 |
| 20260505002810 | 74 | 113 | 0.0 | 1.0 | 0.00 | 0.00 | 0.00 | 53 | 999.1 |
| 20260505002308 | 75 | 109 | 1.0 | 1.0 | 0.00 | 0.00 | 0.00 | 51 | 998.7 |
| 20260505001806 | 76 | 98 | 1.0 | 1.0 | 0.00 | 0.00 | 0.00 | 49 | 998.9 |
| 20260505001302 | 76 | 134 | 1.0 | 1.0 | 0.00 | 0.00 | 0.00 | 50 | 999.1 |
| 20260505000800 | 76 | 195 | 3.0 | 5.0 | 0.00 | 0.00 | 0.00 | 49 | 999.1 |
| 20260505000257 | 76 | 224 | 3.0 | 3.0 | 0.00 | 0.00 | 0.00 | 49 | 999.1 |
| 20260504235754 | 77 | 339 | 1.0 | 2.0 | 0.00 | 0.00 | 0.00 | 49 | 998.9 |
| 20260504235245 | 77 | 172 | 5.0 | 8.0 | 0.00 | 0.00 | 0.00 | 48 | 999.1 |
| 20260504234742 | 78 | 181 | 2.0 | 2.0 | 0.00 | 0.00 | 0.00 | 50 | 998.9 |
| 20260504234239 | 78 | 308 | 3.0 | 5.0 | 0.00 | 0.00 | 0.00 | 48 | 999.0 |
| 20260504233735 | 79 | 305 | 4.0 | 5.0 | 0.00 | 0.00 | 0.00 | 47 | 998.8 |
| 20260504233231 | 78 | 176 | 2.0 | 2.0 | 0.00 | 0.00 | 0.00 | 49 | 998.9 |
| 20260504232729 | 79 | 140 | 3.0 | 5.0 | 0.00 | 0.00 | 0.00 | 46 | 998.9 |
| 20260504232226 | 79 | 154 | 3.0 | 3.0 | 0.00 | 0.00 | 0.00 | 49 | 999.0 |
| 20260504231722 | 80 | 295 | 4.0 | 5.0 | 0.00 | 0.00 | 0.00 | 47 | 999.0 |
| 20260504231218 | 80 | 13 | 2.0 | 5.0 | 0.00 | 0.00 | 0.00 | 48 | 998.9 |
| 20260504230714 | 80 | 76 | 1.0 | 1.0 | 0.00 | 0.00 | 0.00 | 47 | 999.0 |
| 20260504230213 | 80 | 209 | 2.0 | 2.0 | 0.00 | 0.00 | 0.00 | 48 | 998.9 |
| 20260504225711 | 81 | 343 | 3.0 | 3.0 | 0.00 | 0.00 | 0.00 | 45 | 999.0 |
| 20260504225207 | 80 | 152 | 4.0 | 6.0 | 0.00 | 0.00 | 0.00 | 47 | 999.0 |
| 20260504224705 | 81 | 301 | 5.0 | 10.0 | 0.00 | 0.00 | 0.00 | 47 | 999.1 |
| 20260504224202 | 81 | 98 | 3.0 | 5.0 | 0.00 | 0.00 | 0.00 | 48 | 998.8 |
| 20260504223658 | 81 | 202 | 3.0 | 5.0 | 0.00 | 0.00 | 0.00 | 47 | 998.9 |
| 20260504223154 | 80 | 211 | 1.0 | 3.0 | 0.00 | 0.00 | 0.00 | 47 | 999.1 |
| 20260504222651 | 80 | 137 | 1.0 | 1.0 | 0.00 | 0.00 | 0.00 | 44 | 998.9 |
| 20260504222147 | 80 | 249 | 3.0 | 5.0 | 0.00 | 0.00 | 0.00 | 47 | 999.2 |
| 20260504221645 | 79 | 32 | 4.0 | 6.0 | 0.00 | 0.00 | 0.00 | 48 | 999.1 |
| 20260504221142 | 79 | 120 | 1.0 | 2.0 | 0.00 | 0.00 | 0.00 | 46 | 999.0 |
| 20260504220638 | 80 | 332 | 3.0 | 3.0 | 0.00 | 0.00 | 0.00 | 45 | 999.1 |
| 20260504220136 | 80 | 208 | 4.0 | 6.0 | 0.00 | 0.00 | 0.00 | 44 | 999.2 |
| 20260504215632 | 81 | 295 | 8.0 | 8.0 | 0.00 | 0.00 | 0.00 | 44 | 999.1 |
| 20260504215130 | 82 | 161 | 4.0 | 7.0 | 0.00 | 0.00 | 0.00 | 44 | 999.3 |
| 20260504214626 | 82 | 199 | 3.0 | 3.0 | 0.00 | 0.00 | 0.00 | 44 | 999.3 |
| 20260504214122 | 82 | 181 | 4.0 | 5.0 | 0.00 | 0.00 | 0.00 | 44 | 999.4 |
| 20260504213619 | 81 | 311 | 6.0 | 8.0 | 0.00 | 0.00 | 0.00 | 44 | 999.4 |
| 20260504213115 | 81 | 38 | 2.0 | 3.0 | 0.00 | 0.00 | 0.00 | 45 | 999.5 |
| 20260504212612 | 81 | 76 | 3.0 | 5.0 | 0.00 | 0.00 | 0.00 | 43 | 999.6 |
| 20260504212109 | 81 | 275 | 2.0 | 3.0 | 0.00 | 0.00 | 0.00 | 44 | 999.4 |
| 20260504211606 | 81 | 139 | 1.0 | 2.0 | 0.00 | 0.00 | 0.00 | 44 | 999.5 |
| 20260504211102 | 80 | 224 | 7.0 | 8.0 | 0.00 | 0.00 | 0.00 | 44 | 999.6 |
| 20260504210600 | 81 | 207 | 7.0 | 10.0 | 0.00 | 0.00 | 0.00 | 44 | 999.5 |
| 20260504210056 | 81 | 165 | 5.0 | 7.0 | 0.00 | 0.00 | 0.00 | 46 | 999.6 |
| 20260504205554 | 81 | 121 | 3.0 | 5.0 | 0.00 | 0.00 | 0.00 | 45 | 999.5 |
| 20260504205052 | 81 | 196 | 2.0 | 3.0 | 0.00 | 0.00 | 0.00 | 49 | 999.8 |
| 20260504204549 | 81 | 188 | 3.0 | 5.0 | 0.00 | 0.00 | 0.00 | 44 | 999.7 |
| 20260504204049 | 81 | 179 | 7.0 | 10.0 | 0.00 | 0.00 | 0.00 | 43 | 999.8 |
| 20260504203546 | 81 | 138 | 7.0 | 10.0 | 0.00 | 0.00 | 0.00 | 43 | 999.8 |
| 20260504203044 | 81 | 251 | 8.0 | 9.0 | 0.00 | 0.00 | 0.00 | 44 | 999.6 |
| 20260504202539 | 81 | 5 | 3.0 | 6.0 | 0.00 | 0.00 | 0.00 | 49 | 999.9 |
| 20260504202036 | 82 | 132 | 2.0 | 3.0 | 0.00 | 0.00 | 0.00 | 45 | 1000.1 |
| 20260504201533 | 82 | 351 | 1.0 | 2.0 | 0.00 | 0.00 | 0.00 | 48 | 1000.0 |
| 20260504201031 | 82 | 154 | 2.0 | 2.0 | 0.00 | 0.00 | 0.00 | 45 | 1000.1 |
| 20260504200526 | 81 | 146 | 1.0 | 2.0 | 0.00 | 0.00 | 0.00 | 46 | 1000.1 |
| 20260504200024 | 81 | 290 | 6.0 | 6.0 | 0.00 | 0.00 | 0.00 | 45 | 1000.2 |
| 20260504195520 | 81 | 234 | 7.0 | 9.0 | 0.00 | 0.00 | 0.00 | 44 | 1000.1 |
| 20260504195017 | 81 | 307 | 2.0 | 3.0 | 0.00 | 0.00 | 0.00 | 46 | 1000.1 |
| 20260504194513 | 81 | 198 | 8.0 | 11.0 | 0.00 | 0.00 | 0.00 | 45 | 1000.5 |
| 20260504194008 | 80 | 304 | 10.0 | 17.0 | 0.00 | 0.00 | 0.00 | 42 | 1000.4 |
| 20260504193506 | 80 | 177 | 5.0 | 7.0 | 0.00 | 0.00 | 0.00 | 44 | 1000.4 |
| 20260504193004 | 80 | 203 | 3.0 | 6.0 | 0.00 | 0.00 | 0.00 | 47 | 1000.5 |
| 20260504192502 | 80 | 6 | 5.0 | 6.0 | 0.00 | 0.00 | 0.00 | 44 | 1000.3 |
| 20260504192000 | 80 | 325 | 7.0 | 10.0 | 0.00 | 0.00 | 0.00 | 43 | 1000.4 |
| 20260504191458 | 80 | 196 | 3.0 | 5.0 | 0.00 | 0.00 | 0.00 | 49 | 1000.1 |
| 20260504190953 | 80 | 178 | 5.0 | 6.0 | 0.00 | 0.00 | 0.00 | 47 | 1000.4 |
| 20260504190449 | 80 | 339 | 4.0 | 7.0 | 0.00 | 0.00 | 0.00 | 48 | 1000.4 |
| 20260504185946 | 80 | 144 | 3.0 | 5.0 | 0.00 | 0.00 | 0.00 | 49 | 1000.5 |
| 20260504185443 | 80 | 132 | 2.0 | 2.0 | 0.00 | 0.00 | 0.00 | 49 | 1000.6 |
| 20260504184939 | 80 | 14 | 6.0 | 9.0 | 0.00 | 0.00 | 0.00 | 46 | 1000.7 |
| 20260504184435 | 80 | 214 | 4.0 | 6.0 | 0.00 | 0.00 | 0.00 | 45 | 1000.7 |
| 20260504183931 | 80 | 207 | 2.0 | 2.0 | 0.00 | 0.00 | 0.00 | 51 | 1000.7 |
| 20260504183428 | 79 | 148 | 2.0 | 3.0 | 0.00 | 0.00 | 0.00 | 47 | 1000.7 |
| 20260504182926 | 79 | 251 | 6.0 | 7.0 | 0.00 | 0.00 | 0.00 | 48 | 1000.9 |
| 20260504182423 | 79 | 305 | 7.0 | 10.0 | 0.00 | 0.00 | 0.00 | 47 | 1000.8 |
| 20260504181920 | 79 | 267 | 5.0 | 6.0 | 0.00 | 0.00 | 0.00 | 50 | 1000.8 |
| 20260504181417 | 79 | 201 | 3.0 | 5.0 | 0.00 | 0.00 | 0.00 | 47 | 1000.7 |
| 20260504180916 | 79 | 14 | 3.0 | 6.0 | 0.00 | 0.00 | 0.00 | 53 | 1000.7 |
| 20260504180414 | 78 | 351 | 5.0 | 7.0 | 0.00 | 0.00 | 0.00 | 50 | 1000.8 |
| 20260504175912 | 78 | 283 | 3.0 | 5.0 | 0.00 | 0.00 | 0.00 | 52 | 1000.9 |
| 20260504175408 | 78 | 154 | 4.0 | 7.0 | 0.00 | 0.00 | 0.00 | 52 | 1000.9 |
| 20260504174906 | 78 | 277 | 5.0 | 6.0 | 0.00 | 0.00 | 0.00 | 50 | 1000.6 |
| 20260504174404 | 78 | 320 | 3.0 | 5.0 | 0.00 | 0.00 | 0.00 | 52 | 1000.7 |
| 20260504173901 | 78 | 167 | 1.0 | 1.0 | 0.00 | 0.00 | 0.00 | 53 | 1000.9 |
| 20260504173357 | 78 | 100 | 3.0 | 3.0 | 0.00 | 0.00 | 0.00 | 50 | 1000.8 |
| 20260504172854 | 77 | 158 | 1.0 | 2.0 | 0.00 | 0.00 | 0.00 | 51 | 1001.1 |
| 20260504172351 | 77 | 200 | 3.0 | 5.0 | 0.00 | 0.00 | 0.00 | 55 | 1000.7 |
| 20260504171846 | 77 | 203 | 4.0 | 5.0 | 0.00 | 0.00 | 0.00 | 51 | 1000.9 |
| 20260504171344 | 77 | 62 | 2.0 | 3.0 | 0.00 | 0.00 | 0.00 | 53 | 1001.1 |
| 20260504170841 | 77 | 55 | 1.0 | 2.0 | 0.00 | 0.00 | 0.00 | 53 | 1001.2 |
| 20260504170338 | 76 | 219 | 4.0 | 6.0 | 0.00 | 0.00 | 0.00 | 55 | 1000.8 |
| 20260504160256 | 74 | 189 | 7.0 | 8.0 | 0.00 | 0.00 | 0.00 | 53 | 1002.0 |
| 20260504150722 | 71 | 144 | 2.0 | 2.0 | 0.00 | 0.00 | 0.00 | 57 | 1002.3 |
| 20260504150218 | 71 | 218 | 5.0 | 6.0 | 0.00 | 0.00 | 0.00 | 55 | 1002.3 |
| 20260504141148 | 68 | 146 | 1.0 | 1.0 | 0.00 | 0.00 | 0.00 | 63 | 1003.1 |
| 20260504140644 | 67 | 268 | 1.0 | 3.0 | 0.00 | 0.00 | 0.00 | 64 | 1003.0 |
| 20260504140140 | 67 | 72 | 3.0 | 5.0 | 0.00 | 0.00 | 0.00 | 65 | 1003.0 |
| 20260504130608 | 59 | 195 | 2.0 | 2.0 | 0.00 | 0.00 | 0.00 | 80 | 1003.4 |
| 20260504130105 | 58 | 100 | 0.0 | 0.0 | 0.00 | 0.00 | 0.00 | 85 | 1003.3 |
| 20260504110456 | 50 | 150 | 1.0 | 1.0 | 0.00 | 0.00 | 0.00 | 98 | 1003.4 |
| 20260504100418 | 50 | 144 | 0.0 | 0.0 | 0.00 | 0.00 | 0.00 | 97 | 1003.5 |